{"data":{"norad_id":48138,"intl_designator":"2021-027AY","name":"STARLINK-2481","alt_names":[],"object_type":"PAYLOAD","status":"ACTIVE","operator":null,"country":"US","launch_date":"2021-04-07","launch_site_code":"AFETR","launch_vehicle":null,"mission":null,"orbit_class":"UNKNOWN","rcs_meters":null,"size_class":null,"mass_kg":null,"dimensions":null,"purposes":["comms"],"wikipedia_slug":null,"has_3d_model":false,"image_url":null,"decayed_at":null,"tle_current":{"epoch":"2026-09-20T04:47:44.593152Z","epoch_age_seconds":55100,"freshness":"FRESH","line1":"1 48138U 21027AY  26263.19982168  .00001850  00000+0  71377-4 0  9991","line2":"2 48138  53.1614 342.5463 0001154  80.8101 279.3031 15.31697286302280","mean_motion":15.31697286,"eccentricity":0.0001154,"inclination_deg":53.1614,"raan_deg":342.5463,"arg_perigee_deg":80.8101,"mean_anomaly_deg":279.3031,"bstar":7.1377e-5,"rev_number":30228,"period_min":94.013354542172,"perigee_km":469.9577241915,"apogee_km":471.53844686924,"semimajor_km":6848.8850855304,"source":"CELESTRAK","updated_at":"2026-09-20T09:00:38.924457Z"}}}